Location: Góry Miechowskie
(50.3599°N, 20.1803°E)
Time: 02:46:41
(UTC+00:00)

SR - Pass Details

Date: 14 September 2024
Orbit: 578 x 855 km, 66.7° (Epoch: 04 October)

Event Time Altitude Azimuth Distance (km) Brightness Sun altitude
Rises 21:10:22 0° 317° (NW) 2,926 ? -33.7°
Reaches altitude 10° 21:12:42 10° 308° (NW) 2,053 ? -33.9°
Enters shadow 21:14:21 20° 296° (WNW) 1,515 ? -34.0°
